GSAT-7A

Last updated on Sat Apr 13 2024 01:02:39 GMT+0100 (British Summer Time)

1 43864U 18105A 24103.53325476 .00000017 00000+0 00000+0 0 9991 2 43864 0.0474 95.6699 0002134 285.7223 74.6114 1.00272608 19475
UTC large
Height (km)
Speed (km/s)
/
Latitude / Longitude
Inclination (degrees)
Orbital Period (minutes)
Azimuth
Elevation
Range (km)
Doppler Factor

Next 0 passes for location: London (51.5072 / 0.1276)

Sorry there are no passes over London.